Year,Month,Day,Hour,Minute,Value (Times are PST for windspeed in km/hr)
2008,01,01,00,00,6.60
2008,01,01,00,01,16.80
2008,01,01,00,02,8.40
2008,01,01,00,03,12.80
2008,01,01,00,04,8.50
2008,01,01,00,05,7.80
2008,01,01,00,06,8.30
2008,01,01,00,07,11.20
2008,01,01,00,08,15.10
2008,01,01,00,09,7.00
2008,01,01,00,10,6.20
2008,01,01,00,11,7.90
2008,01,01,00,12,11.60
2008,01,01,00,13,16.90
2008,01,01,00,14,26.70
2008,01,01,00,15,14.40
2008,01,01,00,16,10.60
2008,01,01,00,17,18.00
2008,01,01,00,18,22.90
2008,01,01,00,19,18.20
2008,01,01,00,20,19.30
2008,01,01,00,21,27.00
2008,01,01,00,22,17.40
2008,01,01,00,23,12.00
2008,01,01,00,24,13.10
2008,01,01,00,25,8.10
2008,01,01,00,26,14.80
2008,01,01,00,27,13.00
2008,01,01,00,28,15.40
2008,01,01,00,29,14.20
2008,01,01,00,30,17.50
2008,01,01,00,31,8.80
2008,01,01,00,32,10.00
2008,01,01,00,33,15.20
2008,01,01,00,34,8.30
2008,01,01,00,35,10.90
2008,01,01,00,36,13.90
2008,01,01,00,37,9.60
2008,01,01,00,38,8.10
2008,01,01,00,39,11.00
2008,01,01,00,40,8.10
2008,01,01,00,41,7.50
2008,01,01,00,42,14.40
2008,01,01,00,43,12.00
2008,01,01,00,44,16.70
2008,01,01,00,45,11.70
2008,01,01,00,46,6.00
2008,01,01,00,47,11.70
2008,01,01,00,48,11.70
2008,01,01,00,49,13.00
2008,01,01,00,50,10.70
2008,01,01,00,51,11.50
2008,01,01,00,52,12.80
2008,01,01,00,53,11.40
2008,01,01,00,54,15.00
2008,01,01,00,55,11.80
2008,01,01,00,56,14.90
2008,01,01,00,57,17.60
2008,01,01,00,58,11.10
2008,01,01,00,59,18.90
2008,01,01,01,00,13.90
2008,01,01,01,01,16.70
2008,01,01,01,02,19.50
2008,01,01,01,03,13.40
2008,01,01,01,04,14.60
2008,01,01,01,05,11.60
2008,01,01,01,06,8.50
2008,01,01,01,07,13.30
2008,01,01,01,08,12.10
2008,01,01,01,09,10.60
2008,01,01,01,10,7.10
2008,01,01,01,11,16.00
2008,01,01,01,12,12.60
2008,01,01,01,13,9.30
2008,01,01,01,14,9.70
2008,01,01,01,15,6.30
2008,01,01,01,16,10.00
2008,01,01,01,17,11.80
2008,01,01,01,18,6.90
2008,01,01,01,19,12.10
2008,01,01,01,20,8.20
2008,01,01,01,21,9.80
2008,01,01,01,22,13.60
2008,01,01,01,23,8.10
2008,01,01,01,24,9.30
2008,01,01,01,25,8.40
2008,01,01,01,26,7.70
2008,01,01,01,27,9.00
2008,01,01,01,28,12.40
2008,01,01,01,29,14.40
2008,01,01,01,30,8.10
2008,01,01,01,31,9.10
2008,01,01,01,32,14.50
2008,01,01,01,33,14.80
2008,01,01,01,34,14.00
2008,01,01,01,35,9.30
2008,01,01,01,36,13.60
2008,01,01,01,37,8.30
2008,01,01,01,38,9.30
2008,01,01,01,39,8.20
2008,01,01,01,40,5.60
2008,01,01,01,41,7.30
2008,01,01,01,42,18.70
2008,01,01,01,43,7.20
2008,01,01,01,44,16.60
2008,01,01,01,45,5.90
2008,01,01,01,46,7.80
2008,01,01,01,47,5.10
2008,01,01,01,48,11.60
2008,01,01,01,49,7.30
2008,01,01,01,50,5.50
2008,01,01,01,51,6.40
2008,01,01,01,52,11.40
2008,01,01,01,53,8.70
2008,01,01,01,54,9.50
2008,01,01,01,55,17.10
2008,01,01,01,56,8.60
2008,01,01,01,57,17.20
2008,01,01,01,58,13.10
2008,01,01,01,59,9.80
2008,01,01,02,00,14.50
2008,01,01,02,01,10.00
2008,01,01,02,02,19.70
2008,01,01,02,03,9.20
2008,01,01,02,04,14.80
2008,01,01,02,05,9.80
2008,01,01,02,06,14.80
2008,01,01,02,07,14.20
2008,01,01,02,08,15.00
2008,01,01,02,09,15.70
2008,01,01,02,10,12.80
2008,01,01,02,11,21.40
2008,01,01,02,12,17.70
2008,01,01,02,13,13.90
2008,01,01,02,14,19.80
2008,01,01,02,15,20.00
2008,01,01,02,16,15.40
2008,01,01,02,17,14.70
2008,01,01,02,18,12.30
2008,01,01,02,19,17.70
2008,01,01,02,20,14.30
2008,01,01,02,21,27.30
2008,01,01,02,22,14.40
2008,01,01,02,23,10.50
2008,01,01,02,24,10.70
2008,01,01,02,25,10.70
2008,01,01,02,26,8.60
2008,01,01,02,27,8.60
2008,01,01,02,28,17.10
2008,01,01,02,29,6.30
2008,01,01,02,30,8.70
2008,01,01,02,31,7.40
2008,01,01,02,32,9.00
2008,01,01,02,33,7.80
2008,01,01,02,34,6.70
2008,01,01,02,35,9.70
2008,01,01,02,36,13.30
2008,01,01,02,37,9.90
2008,01,01,02,38,19.60
2008,01,01,02,39,15.90
2008,01,01,02,40,18.70
2008,01,01,02,41,17.10
2008,01,01,02,42,17.00
2008,01,01,02,43,19.10
2008,01,01,02,44,19.70
2008,01,01,02,45,14.80
2008,01,01,02,46,24.40
2008,01,01,02,47,20.90
2008,01,01,02,48,17.40
2008,01,01,02,49,15.60
2008,01,01,02,50,25.30
2008,01,01,02,51,18.80
2008,01,01,02,52,10.20
2008,01,01,02,53,10.10
2008,01,01,02,54,13.70
2008,01,01,02,55,15.90
2008,01,01,02,56,12.80
2008,01,01,02,57,13.80
2008,01,01,02,58,19.20
2008,01,01,02,59,18.90
2008,01,01,03,00,16.00
2008,01,01,03,01,12.50
2008,01,01,03,02,15.70
2008,01,01,03,03,17.30
2008,01,01,03,04,18.70
2008,01,01,03,05,14.90
2008,01,01,03,06,14.00
2008,01,01,03,07,14.40
2008,01,01,03,08,6.30
2008,01,01,03,09,6.10
2008,01,01,03,10,11.80
2008,01,01,03,11,13.30
2008,01,01,03,12,7.30
2008,01,01,03,13,5.30
2008,01,01,03,14,15.20
2008,01,01,03,15,15.10
2008,01,01,03,16,19.60
2008,01,01,03,17,16.70
2008,01,01,03,18,11.20
2008,01,01,03,19,10.70
2008,01,01,03,20,21.00
2008,01,01,03,21,9.70
2008,01,01,03,22,19.40
2008,01,01,03,23,10.00
2008,01,01,03,24,6.60
2008,01,01,03,25,14.70
2008,01,01,03,26,10.90
2008,01,01,03,27,3.10
2008,01,01,03,28,5.60
2008,01,01,03,29,7.60
2008,01,01,03,30,9.50
2008,01,01,03,31,9.90
2008,01,01,03,32,15.30
2008,01,01,03,33,7.20
2008,01,01,03,34,6.50
2008,01,01,03,35,5.00
2008,01,01,03,36,10.20
2008,01,01,03,37,8.00
2008,01,01,03,38,8.10
2008,01,01,03,39,6.00
2008,01,01,03,40,7.80
2008,01,01,03,41,13.60
2008,01,01,03,42,13.30
2008,01,01,03,43,7.10
2008,01,01,03,44,9.70
2008,01,01,03,45,14.20
2008,01,01,03,46,7.90
2008,01,01,03,47,9.40
2008,01,01,03,48,3.20
2008,01,01,03,49,9.40
2008,01,01,03,50,13.70
2008,01,01,03,51,20.30
2008,01,01,03,52,14.90
2008,01,01,03,53,16.10
2008,01,01,03,54,16.20
2008,01,01,03,55,13.40
2008,01,01,03,56,16.10
2008,01,01,03,57,16.10
2008,01,01,03,58,19.00
2008,01,01,03,59,7.90
2008,01,01,04,00,17.30
2008,01,01,04,01,5.20
2008,01,01,04,02,6.30
2008,01,01,04,03,15.90
2008,01,01,04,04,8.60
2008,01,01,04,05,18.30
2008,01,01,04,06,17.30
2008,01,01,04,07,15.90
2008,01,01,04,08,17.30
2008,01,01,04,09,7.40
2008,01,01,04,10,6.20
2008,01,01,04,11,3.90
2008,01,01,04,12,2.80
2008,01,01,04,13,6.80
2008,01,01,04,14,9.90
2008,01,01,04,15,11.80
2008,01,01,04,16,14.80
2008,01,01,04,17,12.90
2008,01,01,04,18,22.90
2008,01,01,04,19,7.70
2008,01,01,04,20,13.40
2008,01,01,04,21,16.70
2008,01,01,04,22,19.70
2008,01,01,04,23,21.30
2008,01,01,04,24,19.30
2008,01,01,04,25,16.90
2008,01,01,04,26,17.60
2008,01,01,04,27,20.70
2008,01,01,04,28,12.60
2008,01,01,04,29,8.50
2008,01,01,04,30,17.70
2008,01,01,04,31,14.70
2008,01,01,04,32,11.50
2008,01,01,04,33,19.10
2008,01,01,04,34,10.30
2008,01,01,04,35,16.30
2008,01,01,04,36,10.90
2008,01,01,04,37,11.30
2008,01,01,04,38,10.60
2008,01,01,04,39,21.10
2008,01,01,04,40,16.30
2008,01,01,04,41,14.10
2008,01,01,04,42,14.00
2008,01,01,04,43,14.00
2008,01,01,04,44,11.60
2008,01,01,04,45,16.00
2008,01,01,04,46,13.30
2008,01,01,04,47,11.30
2008,01,01,04,48,15.70
2008,01,01,04,49,20.60
2008,01,01,04,50,22.30
2008,01,01,04,51,25.80
2008,01,01,04,52,19.10
2008,01,01,04,53,15.10
2008,01,01,04,54,12.30
2008,01,01,04,55,17.80
2008,01,01,04,56,8.30
2008,01,01,04,57,7.60
2008,01,01,04,58,16.70
2008,01,01,04,59,11.50
2008,01,01,05,00,10.20
2008,01,01,05,01,9.30
2008,01,01,05,02,10.60
2008,01,01,05,03,17.10
2008,01,01,05,04,16.70
2008,01,01,05,05,25.90
2008,01,01,05,06,14.50
2008,01,01,05,07,13.70
2008,01,01,05,08,12.00
2008,01,01,05,09,10.80
2008,01,01,05,10,12.70
2008,01,01,05,11,10.30
2008,01,01,05,12,15.50
2008,01,01,05,13,11.70
2008,01,01,05,14,14.90
2008,01,01,05,15,7.20
2008,01,01,05,16,9.70
2008,01,01,05,17,9.50
2008,01,01,05,18,11.50
2008,01,01,05,19,12.60
2008,01,01,05,20,16.70
2008,01,01,05,21,14.10
2008,01,01,05,22,16.10
2008,01,01,05,23,22.90
2008,01,01,05,24,11.50
2008,01,01,05,25,13.30
2008,01,01,05,26,29.00
2008,01,01,05,27,19.20
2008,01,01,05,28,22.20
2008,01,01,05,29,20.40
2008,01,01,05,30,22.90
2008,01,01,05,31,8.60
2008,01,01,05,32,16.80
2008,01,01,05,33,14.60
2008,01,01,05,34,12.30
2008,01,01,05,35,23.20
2008,01,01,05,36,19.80
2008,01,01,05,37,19.30
2008,01,01,05,38,10.40
2008,01,01,05,39,14.20
2008,01,01,05,40,11.20
2008,01,01,05,41,15.10
2008,01,01,05,42,8.20
2008,01,01,05,43,17.80
2008,01,01,05,44,13.70
2008,01,01,05,45,8.90
2008,01,01,05,46,12.00
2008,01,01,05,47,9.40
2008,01,01,05,48,13.10
2008,01,01,05,49,24.40
2008,01,01,05,50,27.80
2008,01,01,05,51,22.10
2008,01,01,05,52,17.00
2008,01,01,05,53,17.50
2008,01,01,05,54,8.70
2008,01,01,05,55,15.20
2008,01,01,05,56,19.30
2008,01,01,05,57,11.30
2008,01,01,05,58,11.70
2008,01,01,05,59,13.60
2008,01,01,06,00,19.60
2008,01,01,06,01,18.70
2008,01,01,06,02,18.50
2008,01,01,06,03,28.90
2008,01,01,06,04,23.80
2008,01,01,06,05,12.30
2008,01,01,06,06,11.60
2008,01,01,06,07,10.70
2008,01,01,06,08,14.00
2008,01,01,06,09,10.00
2008,01,01,06,10,13.70
2008,01,01,06,11,11.90
2008,01,01,06,12,19.00
2008,01,01,06,13,22.80
2008,01,01,06,14,14.20
2008,01,01,06,15,19.90
2008,01,01,06,16,15.30
2008,01,01,06,17,14.40
2008,01,01,06,18,16.90
2008,01,01,06,19,11.00
2008,01,01,06,20,13.60
2008,01,01,06,21,22.40
2008,01,01,06,22,16.30
2008,01,01,06,23,8.70
2008,01,01,06,24,21.70
2008,01,01,06,25,17.20
2008,01,01,06,26,13.90
2008,01,01,06,27,27.00
2008,01,01,06,28,23.20
2008,01,01,06,29,19.70
2008,01,01,06,30,20.10
2008,01,01,06,31,14.30
2008,01,01,06,32,21.30
2008,01,01,06,33,19.40
2008,01,01,06,34,19.80
2008,01,01,06,35,22.40
2008,01,01,06,36,16.80
2008,01,01,06,37,14.10
2008,01,01,06,38,22.10
2008,01,01,06,39,16.90
2008,01,01,06,40,16.00
2008,01,01,06,41,11.70
2008,01,01,06,42,14.70
2008,01,01,06,43,21.50
2008,01,01,06,44,18.60
2008,01,01,06,45,21.80
2008,01,01,06,46,12.20
2008,01,01,06,47,17.30
2008,01,01,06,48,16.30
2008,01,01,06,49,20.00
2008,01,01,06,50,17.00
2008,01,01,06,51,14.30
2008,01,01,06,52,19.00
2008,01,01,06,53,18.10
2008,01,01,06,54,23.90
2008,01,01,06,55,20.50
2008,01,01,06,56,30.40
2008,01,01,06,57,29.50
2008,01,01,06,58,24.70
2008,01,01,06,59,23.30
2008,01,01,07,00,18.30
2008,01,01,07,01,26.90
2008,01,01,07,02,24.30
2008,01,01,07,03,19.80
2008,01,01,07,04,14.70
2008,01,01,07,05,19.40
2008,01,01,07,06,13.10
2008,01,01,07,07,23.00
2008,01,01,07,08,25.70
2008,01,01,07,09,17.70
2008,01,01,07,10,9.60
2008,01,01,07,11,18.30
2008,01,01,07,12,21.70
2008,01,01,07,13,18.90
2008,01,01,07,14,19.10
2008,01,01,07,15,20.00
2008,01,01,07,16,19.10
2008,01,01,07,17,8.20
2008,01,01,07,18,13.30
2008,01,01,07,19,23.30
2008,01,01,07,20,12.20
2008,01,01,07,21,11.00
2008,01,01,07,22,13.80
2008,01,01,07,23,13.90
2008,01,01,07,24,9.80
2008,01,01,07,25,11.60
2008,01,01,07,26,10.00
2008,01,01,07,27,16.30
2008,01,01,07,28,15.90
2008,01,01,07,29,16.70
2008,01,01,07,30,22.10
2008,01,01,07,31,17.80
2008,01,01,07,32,18.30
2008,01,01,07,33,17.30
2008,01,01,07,34,16.70
2008,01,01,07,35,20.50
2008,01,01,07,36,14.80
2008,01,01,07,37,11.80
2008,01,01,07,38,17.30
2008,01,01,07,39,19.40
2008,01,01,07,40,18.40
2008,01,01,07,41,14.90
2008,01,01,07,42,22.60
2008,01,01,07,43,25.90
2008,01,01,07,44,22.20
2008,01,01,07,45,22.90
2008,01,01,07,46,16.70
2008,01,01,07,47,16.50
2008,01,01,07,48,14.00
2008,01,01,07,49,12.60
2008,01,01,07,50,16.80
2008,01,01,07,51,15.90
2008,01,01,07,52,13.50
2008,01,01,07,53,16.90
2008,01,01,07,54,18.10
2008,01,01,07,55,13.80
2008,01,01,07,56,14.10
2008,01,01,07,57,10.10
2008,01,01,07,58,15.00
2008,01,01,07,59,20.40
2008,01,01,08,00,17.80
2008,01,01,08,01,22.30
2008,01,01,08,02,11.80
2008,01,01,08,03,17.50
2008,01,01,08,04,12.40
2008,01,01,08,05,15.90
2008,01,01,08,06,12.20
2008,01,01,08,07,17.80
2008,01,01,08,08,26.60
2008,01,01,08,09,17.00
2008,01,01,08,10,15.50
2008,01,01,08,11,12.30
2008,01,01,08,12,15.10
2008,01,01,08,13,10.30
2008,01,01,08,14,12.70
2008,01,01,08,15,13.40
2008,01,01,08,16,15.10
2008,01,01,08,17,20.70
2008,01,01,08,18,17.20
2008,01,01,08,19,9.30
2008,01,01,08,20,10.10
2008,01,01,08,21,10.50
2008,01,01,08,22,9.00
2008,01,01,08,23,19.50
2008,01,01,08,24,15.10
2008,01,01,08,25,17.00
2008,01,01,08,26,18.30
2008,01,01,08,27,18.30
2008,01,01,08,28,13.70
2008,01,01,08,29,18.30
2008,01,01,08,30,23.30
2008,01,01,08,31,22.20
2008,01,01,08,32,26.70
2008,01,01,08,33,15.20
2008,01,01,08,34,11.70
2008,01,01,08,35,23.20
2008,01,01,08,36,13.30
2008,01,01,08,37,12.00
2008,01,01,08,38,14.10
2008,01,01,08,39,17.70
2008,01,01,08,40,28.80
2008,01,01,08,41,16.60
2008,01,01,08,42,20.30
2008,01,01,08,43,11.40
2008,01,01,08,44,24.30
2008,01,01,08,45,23.60
2008,01,01,08,46,21.80
2008,01,01,08,47,14.40
2008,01,01,08,48,16.90
2008,01,01,08,49,19.20
2008,01,01,08,50,12.90
2008,01,01,08,51,14.10
2008,01,01,08,52,9.90
2008,01,01,08,53,21.80
2008,01,01,08,54,16.50
2008,01,01,08,55,14.00
2008,01,01,08,56,16.40
2008,01,01,08,57,22.70
2008,01,01,08,58,22.40
2008,01,01,08,59,24.30
2008,01,01,09,00,22.30
2008,01,01,09,01,20.60
2008,01,01,09,02,26.80
2008,01,01,09,03,27.10
2008,01,01,09,04,21.80
2008,01,01,09,05,25.10
2008,01,01,09,06,23.20
2008,01,01,09,07,18.70
2008,01,01,09,08,17.30
2008,01,01,09,09,9.40
2008,01,01,09,10,19.00
2008,01,01,09,11,11.00
2008,01,01,09,12,14.40
2008,01,01,09,13,25.60
2008,01,01,09,14,8.70
2008,01,01,09,15,18.80
2008,01,01,09,16,14.50
2008,01,01,09,17,14.70
2008,01,01,09,18,21.20
2008,01,01,09,19,16.00
2008,01,01,09,20,15.60
2008,01,01,09,21,12.70
2008,01,01,09,22,10.40
2008,01,01,09,23,9.40
2008,01,01,09,24,19.20
2008,01,01,09,25,15.90
2008,01,01,09,26,20.40
2008,01,01,09,27,24.30
2008,01,01,09,28,24.00
2008,01,01,09,29,22.30
2008,01,01,09,30,18.70
2008,01,01,09,31,20.20
2008,01,01,09,32,19.10
2008,01,01,09,33,24.80
2008,01,01,09,34,15.30
2008,01,01,09,35,30.70
2008,01,01,09,36,24.70
2008,01,01,09,37,25.50
2008,01,01,09,38,11.50
2008,01,01,09,39,14.10
2008,01,01,09,40,22.50
2008,01,01,09,41,20.40
2008,01,01,09,42,14.30
2008,01,01,09,43,25.60
2008,01,01,09,44,26.30
2008,01,01,09,45,19.30
2008,01,01,09,46,14.40
2008,01,01,09,47,17.80
2008,01,01,09,48,18.60
2008,01,01,09,49,14.20
2008,01,01,09,50,18.50
2008,01,01,09,51,28.90
2008,01,01,09,52,13.60
2008,01,01,09,53,26.30
2008,01,01,09,54,23.60
2008,01,01,09,55,22.10
2008,01,01,09,56,19.50
2008,01,01,09,57,27.90
2008,01,01,09,58,14.20
2008,01,01,09,59,28.40
2008,01,01,10,00,25.50
2008,01,01,10,01,15.40
2008,01,01,10,02,20.10
2008,01,01,10,03,29.80
2008,01,01,10,04,19.60
2008,01,01,10,05,19.00
2008,01,01,10,06,18.30
2008,01,01,10,07,20.00
2008,01,01,10,08,23.50
2008,01,01,10,09,29.50
2008,01,01,10,10,21.40
2008,01,01,10,11,21.20
2008,01,01,10,12,19.00
2008,01,01,10,13,12.10
2008,01,01,10,14,9.40
2008,01,01,10,15,16.30
2008,01,01,10,16,17.60
2008,01,01,10,17,12.10
2008,01,01,10,18,23.10
2008,01,01,10,19,15.30
2008,01,01,10,20,12.00
2008,01,01,10,21,9.90
2008,01,01,10,22,13.30
2008,01,01,10,23,15.10
2008,01,01,10,24,22.70
2008,01,01,10,25,25.10
2008,01,01,10,26,25.30
2008,01,01,10,27,12.50
2008,01,01,10,28,17.30
2008,01,01,10,29,19.80
2008,01,01,10,30,11.50
2008,01,01,10,31,13.50
2008,01,01,10,32,18.80
2008,01,01,10,33,13.30
2008,01,01,10,34,8.70
2008,01,01,10,35,13.50
2008,01,01,10,36,19.30
2008,01,01,10,37,7.10
2008,01,01,10,38,6.80
2008,01,01,10,39,20.50
2008,01,01,10,40,17.40
2008,01,01,10,41,17.50
2008,01,01,10,42,20.10
2008,01,01,10,43,11.60
2008,01,01,10,44,6.00
2008,01,01,10,45,2.00
2008,01,01,10,46,9.70
2008,01,01,10,47,11.10
2008,01,01,10,48,11.70
2008,01,01,10,49,20.80
2008,01,01,10,50,12.70
2008,01,01,10,51,14.00
2008,01,01,10,52,16.50
2008,01,01,10,53,10.50
2008,01,01,10,54,4.70
2008,01,01,10,55,10.30
2008,01,01,10,56,15.10
2008,01,01,10,57,21.00
2008,01,01,10,58,17.90
2008,01,01,10,59,17.10
2008,01,01,11,00,9.50
2008,01,01,11,01,18.00
2008,01,01,11,02,14.50
2008,01,01,11,03,18.90
2008,01,01,11,04,19.90
2008,01,01,11,05,15.10
2008,01,01,11,06,11.60
2008,01,01,11,07,7.00
2008,01,01,11,08,11.60
2008,01,01,11,09,15.10
2008,01,01,11,10,9.60
2008,01,01,11,11,3.20
2008,01,01,11,12,6.50
2008,01,01,11,13,7.60
2008,01,01,11,14,13.10
2008,01,01,11,15,15.20
2008,01,01,11,16,25.30
2008,01,01,11,17,24.90
2008,01,01,11,18,18.10
2008,01,01,11,19,11.40
2008,01,01,11,20,20.60
2008,01,01,11,21,18.80
2008,01,01,11,22,11.80
2008,01,01,11,23,16.30
2008,01,01,11,24,19.80
2008,01,01,11,25,17.80
2008,01,01,11,26,22.30
2008,01,01,11,27,16.90
2008,01,01,11,28,8.90
2008,01,01,11,29,11.80
2008,01,01,11,30,8.80
2008,01,01,11,31,8.40
2008,01,01,11,32,20.30
2008,01,01,11,33,18.50
2008,01,01,11,34,14.60
2008,01,01,11,35,10.40
2008,01,01,11,36,8.10
2008,01,01,11,37,14.00
2008,01,01,11,38,11.90
2008,01,01,11,39,17.30
2008,01,01,11,40,13.90
2008,01,01,11,41,14.70
2008,01,01,11,42,10.50
2008,01,01,11,43,11.50
2008,01,01,11,44,25.70
2008,01,01,11,45,15.10
2008,01,01,11,46,19.80
2008,01,01,11,47,15.70
2008,01,01,11,48,10.20
2008,01,01,11,49,17.00
2008,01,01,11,50,13.30
2008,01,01,11,51,10.20
2008,01,01,11,52,14.10
2008,01,01,11,53,17.80
2008,01,01,11,54,21.50
2008,01,01,11,55,14.30
2008,01,01,11,56,6.70
2008,01,01,11,57,18.30
2008,01,01,11,58,13.10
2008,01,01,11,59,10.00
2008,01,01,12,00,11.60
2008,01,01,12,01,8.40
2008,01,01,12,02,13.70
2008,01,01,12,03,15.20
2008,01,01,12,04,24.50
2008,01,01,12,05,16.40
2008,01,01,12,06,19.70
2008,01,01,12,07,15.90
2008,01,01,12,08,17.00
2008,01,01,12,09,15.70
2008,01,01,12,10,14.80
2008,01,01,12,11,5.40
2008,01,01,12,12,4.30
2008,01,01,12,13,6.10
2008,01,01,12,14,3.50
2008,01,01,12,15,6.70
2008,01,01,12,16,14.60
2008,01,01,12,17,12.00
2008,01,01,12,18,14.50
2008,01,01,12,19,8.70
2008,01,01,12,20,5.90
2008,01,01,12,21,9.70
2008,01,01,12,22,5.60
2008,01,01,12,23,5.80
2008,01,01,12,24,6.10
2008,01,01,12,25,12.10
2008,01,01,12,26,11.50
2008,01,01,12,27,6.00
2008,01,01,12,28,10.30
2008,01,01,12,29,7.10
2008,01,01,12,30,10.70
2008,01,01,12,31,3.70
2008,01,01,12,32,8.80
2008,01,01,12,33,13.00
2008,01,01,12,34,10.00
2008,01,01,12,35,3.00
2008,01,01,12,36,9.80
2008,01,01,12,37,14.50
2008,01,01,12,38,7.40
2008,01,01,12,39,12.50
2008,01,01,12,40,17.40
2008,01,01,12,41,18.20
2008,01,01,12,42,14.50
2008,01,01,12,43,21.40
2008,01,01,12,44,11.90
2008,01,01,12,45,16.60
2008,01,01,12,46,14.60
2008,01,01,12,47,15.60
2008,01,01,12,48,8.80
2008,01,01,12,49,8.90
2008,01,01,12,50,9.10
2008,01,01,12,51,12.20
2008,01,01,12,52,12.30
2008,01,01,12,53,7.90
2008,01,01,12,54,11.40
2008,01,01,12,55,4.60
2008,01,01,12,56,10.30
2008,01,01,12,57,8.20
2008,01,01,12,58,17.10
2008,01,01,12,59,18.70
2008,01,01,13,00,9.20
2008,01,01,13,01,5.50
2008,01,01,13,02,3.60
2008,01,01,13,03,1.50
2008,01,01,13,04,7.80
2008,01,01,13,05,8.00
2008,01,01,13,06,6.00
2008,01,01,13,07,7.00
2008,01,01,13,08,4.40
2008,01,01,13,09,10.10
2008,01,01,13,10,17.30
2008,01,01,13,11,17.40
2008,01,01,13,12,9.60
2008,01,01,13,13,11.70
2008,01,01,13,14,5.90
2008,01,01,13,15,12.00
2008,01,01,13,16,14.00
2008,01,01,13,17,10.00
2008,01,01,13,18,2.40
2008,01,01,13,19,6.80
2008,01,01,13,20,6.30
2008,01,01,13,21,16.80
2008,01,01,13,22,12.90
2008,01,01,13,23,24.70
2008,01,01,13,24,15.60
2008,01,01,13,25,14.50
2008,01,01,13,26,5.50
2008,01,01,13,27,17.20
2008,01,01,13,28,21.40
2008,01,01,13,29,14.10
2008,01,01,13,30,9.70
2008,01,01,13,31,5.00
2008,01,01,13,32,4.80
2008,01,01,13,33,9.00
2008,01,01,13,34,10.70
2008,01,01,13,35,9.80
2008,01,01,13,36,16.50
2008,01,01,13,37,16.80
2008,01,01,13,38,6.60
2008,01,01,13,39,8.40
2008,01,01,13,40,7.40
2008,01,01,13,41,3.80
2008,01,01,13,42,3.40
2008,01,01,13,43,12.20
2008,01,01,13,44,4.30
2008,01,01,13,45,8.20
2008,01,01,13,46,4.90
2008,01,01,13,47,11.10
2008,01,01,13,48,3.50
2008,01,01,13,49,2.40
2008,01,01,13,50,5.20
2008,01,01,13,51,6.60
2008,01,01,13,52,5.60
2008,01,01,13,53,4.90
2008,01,01,13,54,1.00
2008,01,01,13,55,1.70
2008,01,01,13,56,5.90
2008,01,01,13,57,8.30
2008,01,01,13,58,5.00
2008,01,01,13,59,2.60
2008,01,01,14,00,10.70
2008,01,01,14,01,16.40
2008,01,01,14,02,4.50
2008,01,01,14,03,2.40
2008,01,01,14,04,4.30
2008,01,01,14,05,3.10
2008,01,01,14,06,2.00
2008,01,01,14,07,7.50
2008,01,01,14,08,2.80
2008,01,01,14,09,4.40
2008,01,01,14,10,8.60
2008,01,01,14,11,7.70
2008,01,01,14,12,5.00
2008,01,01,14,13,4.40
2008,01,01,14,14,4.70
2008,01,01,14,15,1.50
2008,01,01,14,16,5.00
2008,01,01,14,17,10.40
2008,01,01,14,18,5.40
2008,01,01,14,19,5.60
2008,01,01,14,20,8.30
2008,01,01,14,21,9.00
2008,01,01,14,22,10.10
2008,01,01,14,23,11.20
2008,01,01,14,24,8.20
2008,01,01,14,25,4.40
2008,01,01,14,26,7.60
2008,01,01,14,27,10.70
2008,01,01,14,28,9.20
2008,01,01,14,29,6.70
2008,01,01,14,30,4.30
2008,01,01,14,31,10.90
2008,01,01,14,32,7.60
2008,01,01,14,33,13.80
2008,01,01,14,34,6.50
2008,01,01,14,35,8.90
2008,01,01,14,36,6.80
2008,01,01,14,37,4.40
2008,01,01,14,38,4.90
2008,01,01,14,39,6.20
2008,01,01,14,40,4.40
2008,01,01,14,41,6.70
2008,01,01,14,42,8.00
2008,01,01,14,43,3.70
2008,01,01,14,44,4.00
2008,01,01,14,45,1.20
2008,01,01,14,46,5.10
2008,01,01,14,47,5.90
2008,01,01,14,48,7.30
2008,01,01,14,49,5.10
2008,01,01,14,50,2.60
2008,01,01,14,51,4.20
2008,01,01,14,52,6.00
2008,01,01,14,53,5.90
2008,01,01,14,54,5.80
2008,01,01,14,55,7.20
2008,01,01,14,56,6.30
2008,01,01,14,57,10.30
2008,01,01,14,58,7.80
2008,01,01,14,59,5.50
2008,01,01,15,00,6.70
2008,01,01,15,01,5.30
2008,01,01,15,02,6.80
2008,01,01,15,03,10.30
2008,01,01,15,04,10.80
2008,01,01,15,05,5.60
2008,01,01,15,06,0.40
2008,01,01,15,07,4.40
2008,01,01,15,08,4.30
2008,01,01,15,09,7.50
2008,01,01,15,10,4.90
2008,01,01,15,11,7.30
2008,01,01,15,12,3.80
2008,01,01,15,13,1.40
2008,01,01,15,14,2.40
2008,01,01,15,15,2.90
2008,01,01,15,16,5.80
2008,01,01,15,17,5.50
2008,01,01,15,18,6.60
2008,01,01,15,19,6.00
2008,01,01,15,20,6.70
2008,01,01,15,21,4.00
2008,01,01,15,22,1.00
2008,01,01,15,23,4.00
2008,01,01,15,24,6.70
2008,01,01,15,25,9.10
2008,01,01,15,26,5.80
2008,01,01,15,27,3.40
2008,01,01,15,28,5.70
2008,01,01,15,29,5.60
2008,01,01,15,30,6.70
2008,01,01,15,31,6.60
2008,01,01,15,32,4.90
2008,01,01,15,33,7.60
2008,01,01,15,34,4.10
2008,01,01,15,35,3.90
2008,01,01,15,36,5.30
2008,01,01,15,37,4.40
2008,01,01,15,38,5.60
2008,01,01,15,39,3.70
2008,01,01,15,40,3.70
2008,01,01,15,41,3.30
2008,01,01,15,42,5.50
2008,01,01,15,43,9.10
2008,01,01,15,44,9.60
2008,01,01,15,45,8.80
2008,01,01,15,46,7.00
2008,01,01,15,47,6.40
2008,01,01,15,48,8.50
2008,01,01,15,49,5.70
2008,01,01,15,50,4.40
2008,01,01,15,51,7.10
2008,01,01,15,52,5.70
2008,01,01,15,53,8.70
2008,01,01,15,54,7.60
2008,01,01,15,55,5.50
2008,01,01,15,56,4.60
2008,01,01,15,57,8.00
2008,01,01,15,58,7.00
2008,01,01,15,59,4.80
2008,01,01,16,00,8.00
2008,01,01,16,01,6.80
2008,01,01,16,02,9.90
2008,01,01,16,03,8.20
2008,01,01,16,04,7.10
2008,01,01,16,05,5.10
2008,01,01,16,06,4.80
2008,01,01,16,07,2.60
2008,01,01,16,08,5.30
2008,01,01,16,09,5.00
2008,01,01,16,10,10.60
2008,01,01,16,11,7.30
2008,01,01,16,12,5.60
2008,01,01,16,13,9.20
2008,01,01,16,14,6.60
2008,01,01,16,15,8.20
2008,01,01,16,16,9.60
2008,01,01,16,17,10.20
2008,01,01,16,18,10.50
2008,01,01,16,19,11.10
2008,01,01,16,20,11.80
2008,01,01,16,21,14.10
2008,01,01,16,22,7.50
2008,01,01,16,23,8.00
2008,01,01,16,24,8.90
2008,01,01,16,25,4.50
2008,01,01,16,26,6.40
2008,01,01,16,27,5.00
2008,01,01,16,28,6.40
2008,01,01,16,29,4.30
2008,01,01,16,30,2.50
2008,01,01,16,31,3.90
2008,01,01,16,32,6.30
2008,01,01,16,33,8.40
2008,01,01,16,34,5.20
2008,01,01,16,35,9.30
2008,01,01,16,36,11.70
2008,01,01,16,37,8.70
2008,01,01,16,38,5.20
2008,01,01,16,39,4.50
2008,01,01,16,40,4.80
2008,01,01,16,41,5.50
2008,01,01,16,42,9.50
2008,01,01,16,43,7.20
2008,01,01,16,44,4.50
2008,01,01,16,45,9.40
2008,01,01,16,46,6.90
2008,01,01,16,47,6.20
2008,01,01,16,48,4.40
2008,01,01,16,49,2.00
2008,01,01,16,50,2.60
2008,01,01,16,51,1.60
2008,01,01,16,52,2.60
2008,01,01,16,53,2.60
2008,01,01,16,54,6.70
2008,01,01,16,55,5.40
2008,01,01,16,56,3.60
2008,01,01,16,57,6.80
2008,01,01,16,58,7.00
2008,01,01,16,59,7.40
2008,01,01,17,00,2.40
2008,01,01,17,01,4.20
2008,01,01,17,02,6.60
2008,01,01,17,03,4.90
2008,01,01,17,04,4.30
2008,01,01,17,05,2.40
2008,01,01,17,06,2.20
2008,01,01,17,07,1.00
2008,01,01,17,08,2.50
2008,01,01,17,09,1.00
2008,01,01,17,10,5.10
2008,01,01,17,11,4.40
2008,01,01,17,12,4.30
2008,01,01,17,13,4.90
2008,01,01,17,14,5.20
2008,01,01,17,15,4.30
2008,01,01,17,16,3.40
2008,01,01,17,17,9.60
2008,01,01,17,18,9.40
2008,01,01,17,19,8.90
2008,01,01,17,20,7.60
2008,01,01,17,21,6.50
2008,01,01,17,22,3.40
2008,01,01,17,23,11.80
2008,01,01,17,24,10.10
2008,01,01,17,25,10.80
2008,01,01,17,26,8.10
2008,01,01,17,27,6.00
2008,01,01,17,28,7.30
2008,01,01,17,29,3.50
2008,01,01,17,30,11.20
2008,01,01,17,31,8.90
2008,01,01,17,32,6.40
2008,01,01,17,33,3.50
2008,01,01,17,34,3.10
2008,01,01,17,35,1.60
2008,01,01,17,36,1.80